Regional Weather Roundup
Issued by NWS

Home | Current Version | Previous Version | Graphics & Text | Print | Product List | Glossary Off
Versions: 1 2 3 4 5 6 7 8 9 10 11 12 13 14 15 16 17 18 19 20 21 22 23 24 25 26 27 28 29 30 31 32 33 34 35 36 37 38 39 40 41 42 43 44 45 46 47 48 49 50

000
ASUS43 KTOP 310259
RWRKS

WEATHER ROUNDUP FOR KANSAS
NATIONAL WEATHER SERVICE GOODLAND KS
1000 PM CDT SUN AUG 30 2015

NOTE:  "FAIR" INDICATES FEW OR NO CLOUDS BELOW 12,000 FEET WITH NO
SIGNIFICANT WEATHER AND/OR OBSTRUCTIONS TO VISIBILITY.

KSZ001>006-013>018-027>032-041>047-310400-
NORTHWEST KANSAS

CITY           SKY/WX    TMP DP  RH WIND       PRES   REMARKS
GOODLAND       CLEAR     71  39  31 S12       29.98R
HAYS           CLEAR     70  54  56 SE9       29.97R
HILL CITY      PTCLDY    70  52  52 E8        29.96R
RUSSELL        CLEAR     70  62  76 SE9       29.96R
$$

KSZ061>065-074>080-084>089-310400-
SOUTHWEST KANSAS

CITY           SKY/WX    TMP DP  RH WIND       PRES   REMARKS
DODGE CITY     CLEAR     69  55  60 SE12      29.98R
ELKHART          N/A     69  52  54 S9          N/A
GARDEN CITY    CLEAR     70  53  54 SE12      29.96S
GREAT BEND     CLEAR     72  61  68 SE9       29.97R
LIBERAL        CLEAR     73  48  40 E13       29.98S
$$

KSZ066>073-081>083-090>101-310400-
SOUTHEAST KANSAS

CITY           SKY/WX    TMP DP  RH WIND       PRES   REMARKS
CHANUTE        CLEAR     74  70  87 CALM      29.97R
COFFEYVILLE    CLEAR     75  74  96 CALM      29.95S
HUTCHINSON     CLEAR     68  63  84 E3        29.97R
NEWTON         CLEAR     70  63  78 SE7       30.00R
PARSONS        PTCLDY    75  73  93 CALM      29.97R
WICHITA INTL   CLEAR     75  67  76 SE10      29.96R
WICHITA JABRA  CLEAR     73  67  81 SE8       29.97R
WINFIELD       CLEAR     74  69  85 E5        29.98R
$$

KSZ007>012-019>026-033>040-048>060-102>105-310400-
NORTHEAST KANSAS

CITY           SKY/WX    TMP DP  RH WIND       PRES   REMARKS
CONCORDIA      CLEAR     67  64  90 SE3       29.98R
EMPORIA        CLEAR     72  67  84 SE7       29.98R
LAWRENCE       CLEAR     69  66  90 CALM      29.97R
MANHATTAN      CLEAR     69  67  93 CALM      29.97R
OLATHE IND     CLEAR     75  70  84 SE6       29.99R
OLATHE EXE     CLEAR     75  70  84 SE5       29.98R
SALINA         MOCLDY    74  67  78 SE3       29.97R
TOPEKA BILLARD CLEAR     71  69  93 SE3       29.97R
TOPEKA FORBES  CLEAR     72  68  87 CALM      29.98R
$$


USA.gov is the U.S. government's official web portal to all federal, state and local government web resources and services.